Theta_e
315 315 315 315 315 314 314 314 313 312 311 311 311 311 310 309 306 297 292 294 294 288 289 287 288 285 284 285 284 281 282 276 278 274 278 277 273 273 269 271 271 272 269 266 265 267 269 276 274 277 279 275 275 274
315 315 314 314 314 314 314 313 312 312 311 311 311 311 311 309 306 300 293 292 294 290 291 287 288 288 288 289 286 281 285 281 283 281 278 276 274 268 268 273 272 273 278 274 276 277 279 277 278 277 276 276 274 273
314 314 314 313 314 314 313 313 313 312 312 311 311 312 311 310 307 302 294 291 291 286 288 286 285 284 286 286 287 286 281 285 282 285 282 280 278 275 269 268 273 274 277 275 277 283 281 281 279 277 276 275 274 273
312 312 313 313 313 313 313 313 313 312 312 312 311 311 311 310 308 303 292 292 294 288 285 287 284 283 284 285 286 286 285 285 284 284 282 280 280 281 278 277 276 278 277 277 277 282 282 279 278 276 275 273 271 271
311 312 312 312 312 312 312 312 312 312 312 312 311 311 310 310 309 301 293 294 296 296 287 285 283 281 282 283 284 285 285 284 284 281 280 279 280 279 276 273 275 277 280 279 282 283 281 278 277 275 273 271 271 269
310 310 311 311 311 311 311 311 311 311 311 311 311 310 310 309 303 296 289 292 293 296 289 286 281 279 281 283 283 283 284 284 284 283 281 281 278 280 277 276 281 285 284 287 285 276 275 275 274 274 272 271 270 269
303 305 308 309 310 310 310 310 310 310 310 310 311 310 310 305 301 291 290 292 296 295 288 287 279 277 280 282 281 282 283 283 283 281 277 278 277 279 276 275 290 284 279 276 276 275 272 273 272 272 272 270 268 266
301 301 302 303 304 306 308 309 309 309 309 310 310 310 308 302 296 290 293 297 297 288 287 287 276 275 279 277 276 280 279 280 280 279 275 274 275 275 274 280 284 276 272 272 274 273 274 273 271 269 269 267 265 265
299 300 301 301 301 302 304 306 307 307 307 307 305 301 297 290 289 286 297 294 291 287 285 283 278 277 276 277 277 277 280 274 275 275 274 274 273 271 278 280 282 276 275 273 270 270 271 270 268 267 266 265 265 265
298 298 299 300 300 301 302 304 305 306 304 302 296 290 285 285 295 294 286 284 285 285 283 281 278 274 277 276 275 275 276 275 272 269 267 267 269 274 279 281 281 276 274 271 268 267 267 267 267 266 266 266 266 265
294 295 297 298 299 300 301 303 304 301 298 289 284 280 284 290 285 284 279 280 280 278 280 279 279 272 276 275 275 277 273 273 270 267 268 265 264 271 275 275 277 277 273 273 272 272 272 270 268 267 266 266 265 264
292 292 293 295 297 299 300 303 301 291 288 288 285 286 284 283 281 280 278 279 277 277 275 275 275 276 275 279 275 274 273 271 271 266 265 264 270 273 272 271 272 273 272 270 269 269 269 269 269 268 267 265 263 262
292 292 292 293 295 297 299 302 297 294 292 287 284 280 280 279 276 276 274 275 275 275 272 272 272 274 273 276 273 273 270 269 268 260 263 268 273 270 271 268 266 267 269 268 266 267 268 267 266 266 264 262 261 259
291 291 292 292 293 295 297 299 296 294 290 284 280 274 276 274 276 277 276 276 275 275 274 276 272 275 274 274 272 272 269 268 264 260 265 273 273 272 269 268 268 267 268 267 267 267 266 266 264 264 263 261 260 259
290 289 290 292 292 292 294 297 297 290 285 282 281 276 274 279 269 266 267 272 272 278 277 274 274 275 273 271 272 266 264 263 265 268 272 276 270 271 269 268 268 267 267 267 267 267 266 265 264 262 260 259 258 256
290 289 288 289 292 291 291 290 290 287 285 283 281 280 276 276 268 270 268 271 276 279 278 278 273 273 272 273 267 268 267 265 271 272 276 273 271 271 270 269 268 268 268 266 267 267 267 265 264 263 258 257 257 257
288 280 288 290 290 291 291 285 285 283 282 282 281 282 278 275 277 273 274 275 279 279 277 275 272 273 271 270 268 269 268 273 277 278 275 272 272 271 271 270 268 268 267 267 266 266 266 263 261 260 260 259 257 256
279 283 288 288 286 286 285 284 282 281 279 281 278 280 281 279 274 273 275 278 279 278 278 275 274 270 272 270 268 271 273 275 275 274 272 271 271 272 272 270 269 268 268 267 267 266 263 262 263 264 264 259 257 255
281 283 285 285 284 279 278 282 283 278 279 279 278 272 278 274 274 278 278 280 281 282 278 276 275 274 272 272 275 275 274 276 275 271 271 273 273 272 272 271 270 269 267 266 265 265 265 265 266 264 262 259 260 257
287 287 286 285 284 275 272 274 278 274 272 272 274 276 274 273 274 277 278 279 279 278 275 274 276 278 276 277 278 279 278 276 272 270 271 271 273 272 271 271 270 269 267 266 266 265 262 261 261 262 261 260 259 257
284 279 285 277 270 271 271 269 271 272 271 268 267 272 275 274 273 275 276 280 278 275 275 278 281 279 274 275 278 278 277 276 275 278 276 271 272 272 271 272 270 268 266 266 265 264 264 265 263 260 259 259 258 256
276 285 272 272 268 263 265 263 268 268 270 269 268 270 271 271 270 273 278 276 275 279 278 279 277 279 274 273 276 278 277 277 275 273 272 272 270 270 270 269 268 267 267 267 266 265 265 265 262 260 259 257 256 253
284 280 273 269 266 262 263 260 262 258 265 263 262 263 267 269 270 273 273 275 276 272 276 275 271 271 276 275 272 272 275 276 274 273 272 273 274 273 271 269 270 268 267 266 268 267 265 263 261 259 258 255 253 252
284 276 272 269 266 261 258 257 255 256 257 257 256 258 263 261 264 268 268 271 270 258 260 268 269 263 263 264 272 276 274 275 273 268 272 272 271 270 271 269 270 270 271 268 266 265 262 261 259 258 257 256 254 254
273 271 272 268 268 262 254 253 252 254 255 254 255 258 263 258 260 261 262 263 260 264 273 268 266 273 276 280 278 272 272 275 273 272 273 274 271 268 268 268 267 266 266 265 263 263 260 259 259 258 257 257 256 254
268 271 268 267 259 260 259 254 252 257 254 255 257 255 252 253 258 261 262 265 266 260 258 264 270 271 273 277 279 275 272 273 274 274 272 273 270 270 267 265 264 262 264 267 265 262 260 260 259 258 257 256 256 255
267 266 266 260 261 257 255 253 253 255 255 256 255 256 260 259 261 262 260 252 252 252 253 255 256 259 269 268 262 264 273 275 274 272 271 272 273 273 270 268 268 269 264 266 265 264 262 260 259 259 258 255 255 254
267 265 264 261 255 253 257 252 254 255 256 258 256 253 260 259 265 260 254 250 251 252 256 257 260 263 264 267 265 266 263 264 264 265 265 264 263 265 268 268 268 267 265 265 265 265 264 262 260 259 258 257 255 252
266 257 260 255 251 252 257 259 259 260 259 261 264 266 259 256 250 248 251 255 253 253 254 260 261 264 265 265 266 265 265 267 267 265 266 264 264 262 262 263 263 263 263 262 265 263 262 261 260 259 257 255 253 249
255 252 255 250 257 257 260 257 254 250 248 253 251 254 255 256 258 255 253 253 254 257 259 261 260 263 262 260 259 261 263 265 271 271 268 267 268 262 262 261 261 261 262 261 261 263 264 257 256 252 251 250 249 249
249 251 252 250 254 250 249 246 247 252 256 258 256 255 257 258 258 253 251 252 254 252 257 262 263 265 265 264 265 265 265 265 268 270 269 266 264 262 262 261 261 261 261 261 260 258 256 255 254 252 251 251 250 248
249 251 255 253 252 252 254 255 255 256 257 257 258 259 256 256 257 259 255 254 251 257 259 263 263 263 264 265 265 265 265 263 265 266 266 264 263 261 260 260 260 260 259 258 257 256 255 254 252 251 252 250 248 245
251 250 248 249 250 251 256 259 259 259 257 257 258 260 260 260 260 257 255 253 252 254 255 257 257 259 260 262 262 262 262 262 263 264 263 262 261 260 259 259 259 258 257 256 254 253 252 250 250 249 248 247 244 244
Wind_Speed
26 27 27 25 26 26 25 25 24 23 23 22 21 20 20 22 21 6 2 5 6 4 4 10 10 7 3 4 6 5 3 1 2 2 4 4 4 5 1 5 8 9 9 6 3 5 14 9 3 8 3 4 5 4
27 28 27 27 27 26 26 25 24 24 24 23 23 22 22 24 25 11 3 2 2 4 4 1 5 2 1 5 8 5 3 6 7 4 2 3 4 3 3 5 3 6 11 9 15 14 1 8 5 3 5 5 5 5
28 28 27 27 27 27 26 26 26 25 25 25 24 24 24 26 28 21 4 6 5 2 5 1 8 3 3 3 1 6 3 4 4 1 4 2 5 5 6 10 1 7 6 6 2 18 21 16 12 6 6 5 6 6
29 28 27 27 28 28 28 28 28 28 28 27 26 26 26 27 30 24 7 6 6 4 4 5 1 1 2 2 3 3 5 5 5 2 2 3 4 7 4 1 4 6 7 6 11 23 17 12 6 7 6 9 10 6
26 26 27 28 28 28 29 29 29 28 28 29 28 27 27 28 29 13 2 7 2 7 5 3 3 3 3 2 5 5 6 5 2 2 3 5 1 1 2 0 10 9 11 9 15 7 9 2 3 8 10 8 10 8
21 23 25 26 27 27 28 29 29 29 29 29 29 29 28 26 27 6 2 5 7 3 2 2 3 2 2 4 8 7 3 4 2 3 3 4 1 3 3 6 12 12 14 20 14 5 2 5 6 4 8 9 6 7
9 3 16 20 20 23 25 27 28 28 28 29 29 29 27 34 17 6 8 2 19 6 3 3 3 1 2 2 2 2 1 2 3 3 4 2 2 5 3 8 29 7 2 2 2 7 2 4 5 7 11 9 7 7
9 11 11 8 3 7 18 22 24 24 25 26 26 22 22 26 12 3 4 16 13 7 0 4 2 3 4 3 4 1 3 2 3 2 1 4 2 3 9 30 13 2 3 2 4 2 3 10 11 9 10 7 7 6
6 8 8 8 7 6 6 9 17 14 12 13 27 33 9 3 3 2 18 10 3 4 5 4 8 6 4 2 2 2 3 3 2 3 3 4 5 13 17 11 14 9 8 8 6 7 7 10 11 10 9 6 7 6
7 5 5 5 4 4 4 7 5 18 32 34 7 4 4 1 27 16 5 3 1 1 2 3 4 4 4 3 3 5 2 3 4 5 3 5 8 10 26 19 11 9 10 15 9 5 7 8 12 10 7 6 6 6
6 8 10 2 2 3 2 5 20 35 15 3 4 4 2 6 2 2 5 4 3 4 5 3 3 6 4 5 4 2 4 3 3 3 5 4 7 12 4 5 7 9 16 14 3 5 12 15 16 11 8 7 6 6
2 2 6 10 10 2 6 20 29 6 2 9 12 8 4 1 1 5 5 3 6 7 4 5 4 3 4 2 4 2 3 1 6 3 1 8 10 4 5 3 3 7 13 11 6 13 13 15 13 12 10 8 6 6
5 3 3 6 9 12 10 24 16 35 18 3 6 5 4 3 4 10 13 6 5 7 8 6 6 5 3 1 4 3 5 6 3 1 8 10 4 1 4 5 3 3 8 9 8 9 13 12 10 9 9 4 7 6
6 3 4 3 7 11 15 18 32 8 4 3 7 8 8 7 8 8 5 6 3 5 12 7 4 4 3 4 4 5 2 3 2 4 12 7 5 7 8 5 8 8 9 11 12 13 14 13 8 7 7 8 8 7
5 1 6 4 4 7 7 18 19 2 2 4 4 7 10 3 3 1 3 4 1 9 11 6 4 3 3 5 2 5 3 7 9 9 6 4 4 8 9 8 9 10 10 11 11 13 12 12 11 8 5 6 6 7
8 5 3 2 5 3 4 7 5 3 1 3 6 4 1 4 2 3 3 4 3 10 4 3 5 5 5 5 6 13 9 12 7 7 4 3 5 7 9 10 10 10 11 11 11 12 12 12 12 10 7 6 5 5
8 2 3 4 1 9 8 2 2 4 6 6 5 4 4 2 5 5 5 6 8 9 5 5 9 8 5 4 7 7 9 6 5 3 3 4 6 8 9 10 10 12 12 12 10 10 10 8 10 8 8 6 6 5
1 3 4 3 4 3 2 3 3 5 7 5 3 2 3 0 5 5 5 12 9 5 6 6 5 5 8 9 7 6 9 2 1 2 2 4 5 8 9 12 12 13 13 11 11 9 9 10 10 7 6 8 6 5
7 5 2 3 5 3 1 3 3 4 5 1 1 1 3 1 2 4 8 14 2 3 7 5 5 7 8 5 6 3 3 5 5 4 2 4 7 10 9 10 12 12 13 13 12 9 9 10 6 7 6 7 5 5
13 10 6 2 6 3 2 3 1 2 3 2 2 2 2 2 2 4 7 12 7 4 4 6 9 6 6 5 5 3 3 6 5 2 2 3 5 10 11 11 10 12 10 9 7 8 6 4 2 4 6 6 6 6
8 2 3 5 4 4 2 2 3 2 4 3 3 3 2 1 2 6 7 10 7 4 5 8 8 1 2 1 2 3 5 9 9 9 7 7 8 9 9 8 10 9 9 9 9 7 8 8 7 6 6 6 4 3
4 9 3 4 4 5 3 3 2 2 2 2 4 2 3 3 2 3 4 6 5 6 5 7 4 4 2 4 5 6 4 8 3 5 8 12 10 10 11 11 11 10 9 10 9 10 9 6 7 7 6 5 5 4
9 4 3 3 4 4 7 3 3 4 0 4 4 5 2 2 2 5 4 3 4 5 6 6 4 4 6 4 3 4 8 10 7 7 7 5 6 7 10 11 11 12 10 7 7 7 7 8 7 7 6 6 4 4
10 6 5 7 6 6 2 1 2 1 3 3 3 5 5 4 3 2 3 3 5 3 2 7 5 1 4 2 6 9 8 7 4 3 5 8 8 7 9 10 9 8 7 9 8 7 7 7 9 7 7 6 5 4
6 8 6 6 3 5 4 2 1 4 5 5 4 6 4 1 1 4 5 5 4 5 9 5 5 8 12 13 8 5 7 9 10 8 8 8 8 8 6 5 5 5 7 11 8 8 7 7 7 8 8 7 8 7
11 10 11 11 2 7 7 6 7 9 6 5 8 3 3 0 4 8 6 6 5 3 3 2 5 7 11 13 13 6 7 5 6 8 8 11 12 13 13 13 10 5 4 6 11 12 11 9 9 11 9 8 8 6
9 5 2 1 5 5 3 2 1 5 7 9 5 5 5 6 7 7 4 2 3 2 3 4 4 7 10 5 3 1 7 9 6 5 6 7 4 7 12 15 15 8 11 9 9 11 13 12 11 10 8 5 6 7
4 6 8 6 2 1 7 3 7 9 6 4 5 6 9 11 11 4 4 3 4 4 7 6 7 7 10 8 4 5 5 6 10 10 9 8 6 5 5 6 8 16 10 9 9 9 9 11 11 11 9 9 7 5
4 2 7 5 3 2 7 9 8 5 4 5 5 7 7 5 3 3 4 1 3 4 3 4 3 4 3 1 2 2 7 10 14 13 15 9 6 2 2 7 8 7 7 9 10 8 10 9 9 9 8 6 4 4
4 2 5 4 8 9 7 6 4 3 3 4 3 3 3 4 4 2 2 2 3 4 4 5 3 4 4 2 2 1 2 2 4 9 12 13 10 9 8 8 8 8 8 10 10 11 14 11 11 5 5 4 3 3
3 4 5 3 6 4 4 2 2 2 0 2 2 3 4 4 3 2 3 3 4 4 5 4 3 4 4 4 5 5 3 1 1 8 10 10 12 9 9 8 8 8 9 10 10 9 9 5 4 7 6 6 6 4
3 5 6 4 5 2 2 2 2 2 3 3 4 4 2 2 5 4 1 2 3 2 3 2 1 1 3 1 3 4 6 4 4 8 13 11 10 10 10 8 8 8 9 9 8 8 7 7 6 5 5 6 5 5
3 3 3 3 1 2 3 3 2 3 2 3 4 4 4 4 6 1 1 1 1 2 2 2 3 3 5 6 7 7 8 8 12 14 16 16 16 14 9 8 8 9 11 9 7 7 7 6 5 5 5 5 5 5
Wind_Direction
212 214 214 211 209 208 209 210 209 209 210 207 208 201 188 184 179 146 202 194 135 187 250 184 174 152 141 179 162 160 103 312 100 147 173 205 209 216 196 198 182 178 160 199 128 220 273 157 96 192 196 180 177 159
211 214 216 212 213 212 210 210 208 210 211 208 206 203 193 186 181 161 188 157 124 134 249 303 260 331 292 176 135 191 193 167 177 115 216 112 216 155 195 250 306 260 197 180 188 221 118 205 230 176 186 170 186 150
214 216 214 213 211 212 213 212 211 211 209 210 206 203 196 191 184 175 140 143 83 77 296 58 222 197 121 193 92 144 266 173 198 164 156 172 222 128 189 225 215 247 179 233 117 250 246 252 231 195 176 163 131 120
213 214 216 217 213 212 215 219 213 210 208 210 208 205 200 196 190 175 170 170 103 123 208 251 7 177 10 68 90 57 111 69 85 65 159 184 198 175 227 169 221 198 149 192 259 281 274 251 224 172 132 119 113 97
220 219 217 217 215 216 215 216 218 215 213 211 210 207 202 196 190 170 103 196 172 158 193 217 125 92 8 116 117 117 121 125 148 144 183 229 249 68 100 52 244 182 206 192 246 242 226 206 143 141 141 145 141 133
220 220 222 222 223 219 220 218 217 215 215 213 211 206 199 190 143 109 293 194 201 198 139 233 52 82 92 125 121 126 136 111 138 186 190 247 151 173 229 244 245 205 216 224 250 116 89 97 104 120 127 134 129 128
68 197 216 222 225 227 224 223 220 221 218 217 216 210 197 155 157 165 191 200 171 109 134 247 201 87 81 119 72 98 24 133 140 191 217 234 202 185 228 249 260 219 197 223 127 111 99 199 178 135 122 118 102 89
94 83 76 72 109 226 227 224 223 222 222 222 221 217 166 133 81 82 353 144 147 96 43 244 127 182 203 162 133 176 141 159 192 198 155 210 159 210 242 241 271 170 99 78 154 56 62 107 110 105 112 121 112 115
98 92 101 94 74 34 12 189 203 202 198 140 118 111 96 74 145 141 119 74 59 119 187 186 171 197 153 99 105 136 191 169 84 229 230 168 194 221 230 247 239 177 187 167 103 86 113 129 133 136 134 127 132 142
62 116 128 126 120 85 4 335 151 140 124 120 86 113 122 235 117 111 24 85 349 207 225 226 92 149 144 174 170 132 196 201 203 229 98 223 258 283 253 240 243 164 150 140 115 132 128 140 159 161 162 148 139 142
33 24 25 49 163 157 213 284 139 127 107 81 99 81 109 69 64 38 118 162 171 240 188 153 160 139 210 148 163 218 170 165 212 223 188 249 262 243 249 239 215 175 163 183 142 145 169 160 158 155 143 141 134 148
231 326 330 338 357 275 264 160 144 82 28 113 105 101 110 114 60 132 189 166 196 216 162 147 160 111 147 188 114 191 155 116 247 108 216 262 245 209 164 183 204 168 158 152 140 137 134 147 155 145 141 147 153 135
210 235 251 279 305 331 300 182 131 126 125 88 69 104 145 156 187 191 191 202 194 170 174 172 133 132 132 155 93 153 157 210 103 122 238 243 262 233 164 141 95 85 119 118 113 119 130 129 127 135 138 135 130 133
81 49 256 259 296 304 336 149 144 134 93 120 150 157 201 182 229 195 187 172 175 123 137 131 102 131 133 145 148 157 114 134 199 241 236 243 223 195 163 141 132 157 147 141 141 137 136 140 133 125 136 146 142 150
174 300 350 307 233 293 331 159 178 55 109 160 167 204 205 194 60 25 108 107 124 142 140 113 95 120 144 125 172 108 136 234 215 230 230 243 210 155 157 161 159 157 148 148 146 143 143 140 143 140 149 137 127 132
194 188 181 255 301 252 312 330 209 32 252 198 222 197 97 152 167 165 151 117 186 151 108 97 141 156 180 154 161 210 176 213 223 217 225 161 170 169 160 164 165 155 155 151 154 152 147 148 156 157 139 144 152 157
174 168 219 207 262 357 150 139 128 197 221 221 226 200 178 132 163 161 144 153 166 160 174 148 174 188 107 183 228 192 216 204 207 208 191 197 176 167 158 156 155 154 154 157 149 155 146 124 126 134 155 184 170 177
175 204 212 91 43 23 132 194 221 217 224 225 223 216 192 139 124 132 151 155 161 204 147 185 121 192 201 200 219 220 223 248 195 196 203 174 153 152 163 163 161 163 161 159 158 144 139 150 162 177 152 147 148 173
170 170 175 111 127 86 314 220 222 255 223 253 225 196 211 186 279 139 158 176 168 126 126 157 184 209 220 206 214 184 184 202 186 180 185 164 157 157 161 160 159 160 157 157 157 166 172 178 172 157 151 156 173 168
171 179 181 163 110 73 309 278 354 277 280 324 322 300 236 198 139 154 165 180 162 169 184 208 217 205 197 198 192 172 179 140 123 105 219 191 164 152 168 168 170 159 150 144 143 138 134 125 162 157 162 169 160 181
173 231 149 94 30 75 139 296 329 27 334 345 322 300 309 346 181 173 177 175 200 216 229 226 249 263 130 159 182 148 161 167 185 182 191 177 183 166 163 168 156 155 158 161 166 167 176 189 172 166 165 171 161 144
207 140 85 33 79 13 27 293 166 310 326 314 316 313 293 288 252 221 152 192 218 211 215 239 241 194 201 216 205 211 180 190 171 119 102 122 153 167 175 170 162 166 166 175 173 178 186 170 149 156 164 149 138 147
111 97 71 70 82 88 245 45 55 342 93 300 5 331 275 285 262 322 241 221 237 239 241 222 212 211 217 200 161 195 191 186 195 186 164 162 164 162 159 169 172 165 164 174 167 163 166 150 150 148 137 130 134 164
129 163 174 180 149 200 50 126 59 98 20 37 69 279 284 262 329 233 261 276 253 313 267 231 207 355 1 356 217 222 205 185 154 115 160 147 154 168 165 167 174 172 168 142 151 143 141 153 146 146 154 151 169 183
201 183 175 180 152 110 126 135 189 92 207 208 166 264 245 44 288 256 226 262 261 248 238 224 185 214 238 247 246 222 180 180 190 183 179 173 134 124 130 130 130 134 145 133 147 153 151 144 154 158 166 173 181 192
212 195 191 172 179 139 172 159 188 200 178 191 220 224 49 277 187 237 225 229 230 226 259 243 250 243 244 239 250 225 198 171 150 190 186 178 172 165 164 164 160 186 205 150 144 157 158 161 164 167 175 182 177 173
200 177 101 39 125 112 66 37 52 129 177 201 215 155 174 236 251 247 259 231 195 241 256 280 271 275 273 290 294 224 150 171 188 185 131 151 161 168 168 166 171 160 157 157 155 159 164 167 169 176 174 158 181 186
152 157 147 185 120 123 165 174 167 194 222 196 95 180 199 205 237 251 218 227 212 278 288 278 256 258 266 250 203 117 74 95 94 97 91 66 42 49 96 96 107 134 146 151 148 148 157 163 165 167 171 179 179 178
144 221 107 143 92 181 202 193 208 214 161 152 208 239 244 242 244 228 245 200 239 253 270 278 297 300 303 39 80 90 150 157 149 162 157 145 140 127 71 104 106 107 118 118 123 122 134 143 149 155 151 146 138 131
226 167 103 132 162 213 226 175 218 202 174 166 155 344 272 252 235 185 258 300 305 293 296 295 267 271 262 198 150 86 0 309 258 181 164 171 165 134 133 121 119 119 119 118 120 119 108 102 103 89 109 120 138 148
128 91 79 129 214 243 225 218 16 47 26 235 175 190 251 300 292 214 204 229 239 232 263 271 231 217 205 185 184 172 166 324 35 103 101 112 125 128 125 120 120 121 126 128 129 131 133 120 125 137 146 159 177 181
81 151 137 177 260 268 112 159 181 190 186 185 223 198 269 274 262 203 204 308 273 263 316 325 186 331 331 63 65 49 87 99 79 108 115 115 114 114 115 115 117 120 122 122 123 129 134 134 141 158 167 181 189 199
82 68 56 84 57 212 211 129 181 261 255 236 244 212 221 209 249 23 152 145 267 301 325 17 13 352 26 57 85 83 74 74 78 86 91 101 112 115 111 111 112 113 116 117 117 125 132 131 142 155 167 182 199 217